This is the latest recevied weather packets stored in our database for station/object K7GFH-13. If no packets are shown the sender has not sent any weather packets the latest 10 day(s).
| Time | Temp. | Humidity | Pressure | Rain* | Wind** | Luminosity | Snow |
|---|---|---|---|---|---|---|---|
| 1778168710 | 10.56° C | 76% | 1022.5 hPa | 0 mm | - | 181 W/m² | - |
| 1778167806 | 10.56° C | 77% | 1022.6 hPa | 0 mm | - | 278 W/m² | - |
| 1778166907 | 10° C | 78% | 1022.6 hPa | 0 mm | - | 169 W/m² | - |
| 1778166003 | 10° C | 78% | 1022.7 hPa | 0 mm | - | 129 W/m² | - |
| 1778165099 | 10° C | 79% | 1022.6 hPa | 0 mm | - | 96 W/m² | - |
| 1778164196 | 10° C | 79% | 1022.6 hPa | 0 mm | - | 85 W/m² | - |
| 1778163290 | 9.44° C | 79% | 1022.5 hPa | 0 mm | - | 55 W/m² | - |
| 1778162388 | 9.44° C | 79% | 1022.5 hPa | 0 mm | - | 20 W/m² | - |
| 1778161484 | 9.44° C | 78% | 1022.4 hPa | 0 mm | - | 23 W/m² | - |
| 1778160581 | 10° C | 78% | 1022.2 hPa | 0 mm | - | 20 W/m² | - |
| 1778159676 | 10° C | 80% | 1022.4 hPa | 0 mm | - | 8 W/m² | - |
| 1778158775 | 10° C | 79% | 1022.4 hPa | 0 mm | - | 3 W/m² | - |
| 1778157872 | 10° C | 79% | 1022.3 hPa | 0 mm | - | 1 W/m² | - |
| 1778156969 | 10° C | 79% | 1022.3 hPa | 0 mm | - | 0 W/m² | - |
| 1778156067 | 10° C | 80% | 1022.4 hPa | 0 mm | - | 0 W/m² | - |
| 1778155162 | 10° C | 80% | 1022.5 hPa | 0 mm | - | 0 W/m² | - |
| 1778154263 | 10.56° C | 79% | 1022.6 hPa | 0 mm | - | 0 W/m² | - |
| 1778153360 | 10.56° C | 80% | 1022.5 hPa | 0 mm | - | 0 W/m² | - |
| 1778152458 | 10.56° C | 79% | 1022.4 hPa | 0 mm | - | 0 W/m² | - |
| 1778151553 | 10.56° C | 79% | 1022.5 hPa | 0 mm | - | 0 W/m² | - |
| 1778150648 | 10.56° C | 80% | 1022.7 hPa | 0 mm | - | 0 W/m² | - |
| 1778149749 | 10.56° C | 80% | 1022.8 hPa | 0 mm | - | 0 W/m² | - |
| 1778148848 | 11.11° C | 80% | 1022.9 hPa | 0 mm | - | 0 W/m² | - |
| 1778147947 | 11.11° C | 80% | 1023 hPa | 0 mm | - | 0 W/m² | - |
| 1778147043 | 11.11° C | 80% | 1023 hPa | 0 mm | - | 0 W/m² | - |
* Rain latest hour (hover to see other rain measurements)
** Current wind speed in m/s (hover to see current wind gust speed)